WMT209 LFML-LRBS

Flight info

Callsign WMT209
Flight time 2h 9m
Altitude 38000
Route NASIK P856 RAPED Y15 USANO DCT BOA DCT VAL DCT ANASA DCT ABRUT
Aircraft A320/M-SDE3FGHIRWY/LB1

Departure

Time 2026-05-04 12:46
Airport Marseille Provence Airport (LFML)

Arrival

Time 2026-05-04 14:55
Airport Bucharest Băneasa Aurel Vlaicu International Airport (LRBS)
Time Latitude Longitude Altitude Speed Heading
2026-05-04 12:11 43.44126 5.21705 34 ft 0 kts 92°
2026-05-04 12:38 43.44126 5.21706 36 ft 0 kts 92°
2026-05-04 12:38 43.44126 5.21721 34 ft 3 kts 92°
2026-05-04 12:38 43.44125 5.21750 36 ft 3 kts 92°
2026-05-04 12:39 43.44110 5.21775 36 ft 4 kts 159°
2026-05-04 12:39 43.44090 5.21769 37 ft 5 kts 202°
2026-05-04 12:39 43.44047 5.21723 38 ft 10 kts 223°
2026-05-04 12:39 43.43983 5.21639 38 ft 15 kts 224°
2026-05-04 12:40 43.43920 5.21528 38 ft 15 kts 259°
2026-05-04 12:40 43.43980 5.21403 37 ft 18 kts 314°
2026-05-04 12:40 43.44074 5.21269 34 ft 21 kts 314°
2026-05-04 12:40 43.44184 5.21112 30 ft 25 kts 314°
2026-05-04 12:41 43.44289 5.20931 27 ft 22 kts 298°
2026-05-04 12:41 43.44389 5.20750 26 ft 25 kts 315°
2026-05-04 12:41 43.44520 5.20565 22 ft 29 kts 314°
2026-05-04 12:41 43.44639 5.20396 19 ft 21 kts 315°
2026-05-04 12:42 43.44751 5.20237 16 ft 25 kts 314°
2026-05-04 12:42 43.44879 5.20053 12 ft 29 kts 314°
2026-05-04 12:42 43.44975 5.19914 10 ft 8 kts 313°
2026-05-04 12:42 43.44984 5.19894 10 ft 0 kts 292°
2026-05-04 12:44 43.44985 5.19883 10 ft 4 kts 278°
2026-05-04 12:44 43.44964 5.19823 10 ft 10 kts 227°
2026-05-04 12:44 43.44902 5.19768 10 ft 11 kts 191°
2026-05-04 12:44 43.44852 5.19822 11 ft 5 kts 134°
2026-05-04 12:45 43.44850 5.19825 11 ft 0 kts 133°
2026-05-04 12:45 43.44826 5.19860 11 ft 23 kts 133°
2026-05-04 12:45 43.44551 5.20254 21 ft 90 kts 134°
2026-05-04 12:46 43.43983 5.21061 36 ft 139 kts 134°
2026-05-04 12:46 43.43254 5.22082 409 ft 154 kts 135°
2026-05-04 12:46 43.42580 5.23211 1216 ft 149 kts 121°
2026-05-04 12:46 43.42179 5.24532 1828 ft 157 kts 108°
2026-05-04 12:47 43.42056 5.26135 2103 ft 183 kts 91°
2026-05-04 12:47 43.42278 5.27979 2464 ft 204 kts 85°
2026-05-04 12:47 43.42544 5.29991 2997 ft 226 kts 85°
2026-05-04 12:47 43.42828 5.32193 3555 ft 246 kts 85°
2026-05-04 12:48 43.43127 5.34591 4406 ft 254 kts 89°
2026-05-04 12:48 43.43137 5.37017 5075 ft 262 kts 97°
2026-05-04 12:48 43.43029 5.39552 5959 ft 269 kts 98°
2026-05-04 12:48 43.42890 5.42156 6748 ft 277 kts 98°
2026-05-04 12:49 43.42742 5.44820 7571 ft 282 kts 100°
2026-05-04 12:49 43.42595 5.47527 8405 ft 287 kts 99°
2026-05-04 12:49 43.42449 5.50283 9330 ft 291 kts 98°
2026-05-04 12:49 43.42308 5.53068 10159 ft 297 kts 99°
2026-05-04 12:50 43.42156 5.56009 10530 ft 320 kts 98°
2026-05-04 12:50 43.41992 5.59172 10870 ft 340 kts 97°
2026-05-04 12:50 43.41826 5.62450 11583 ft 343 kts 97°
2026-05-04 12:50 43.41673 5.65626 12963 ft 326 kts 97°
2026-05-04 12:51 43.41521 5.68757 13648 ft 335 kts 98°
2026-05-04 12:51 43.41352 5.72057 13852 ft 355 kts 98°
2026-05-04 12:51 43.41378 5.75521 14301 ft 368 kts 91°
2026-05-04 12:51 43.41508 5.79051 14863 ft 372 kts 90°
2026-05-04 12:52 43.41638 5.82615 15496 ft 375 kts 90°
2026-05-04 12:52 43.41763 5.86216 16090 ft 379 kts 91°
2026-05-04 12:52 43.41888 5.89851 16714 ft 383 kts 90°
2026-05-04 12:52 43.42013 5.93523 17393 ft 387 kts 90°
2026-05-04 12:53 43.42139 5.97240 18070 ft 391 kts 90°
2026-05-04 12:53 43.42266 6.00991 18693 ft 395 kts 90°
2026-05-04 12:53 43.42393 6.04781 19238 ft 399 kts 90°
2026-05-04 12:53 43.42518 6.08617 19773 ft 403 kts 90°
2026-05-04 12:54 43.42641 6.12487 20316 ft 406 kts 90°
2026-05-04 12:54 43.42764 6.16388 20833 ft 410 kts 90°
2026-05-04 12:54 43.42885 6.20324 21322 ft 414 kts 90°
2026-05-04 12:54 43.43007 6.24297 21804 ft 418 kts 90°
2026-05-04 12:55 43.42952 6.28291 22269 ft 419 kts 99°
2026-05-04 12:55 43.42599 6.32284 22758 ft 422 kts 100°
2026-05-04 12:55 43.42233 6.36312 23245 ft 427 kts 100°
2026-05-04 12:55 43.41864 6.40382 23724 ft 431 kts 100°
2026-05-04 12:56 43.41491 6.44486 24131 ft 435 kts 100°
2026-05-04 12:56 43.41114 6.48627 24553 ft 438 kts 99°
2026-05-04 12:56 43.40734 6.52789 24992 ft 440 kts 100°
2026-05-04 12:56 43.40351 6.56981 25387 ft 443 kts 100°
2026-05-04 12:57 43.39969 6.61141 25761 ft 446 kts 100°
2026-05-04 12:57 43.39576 6.65396 26122 ft 450 kts 100°
2026-05-04 12:57 43.39179 6.69678 26498 ft 453 kts 100°
2026-05-04 12:57 43.38776 6.73986 26863 ft 456 kts 100°
2026-05-04 12:58 43.38368 6.78330 27236 ft 460 kts 100°
2026-05-04 12:58 43.38166 6.82749 27627 ft 467 kts 91°
2026-05-04 12:58 43.38501 6.87211 28018 ft 472 kts 80°
2026-05-04 12:58 43.39381 6.91577 28432 ft 476 kts 70°
2026-05-04 12:59 43.40791 6.95712 28822 ft 480 kts 59°
2026-05-04 12:59 43.42670 6.99511 29211 ft 482 kts 53°
2026-05-04 12:59 43.44655 7.03256 29581 ft 486 kts 53°
2026-05-04 12:59 43.46640 7.07038 29954 ft 489 kts 53°
2026-05-04 13:00 43.48631 7.10855 30250 ft 493 kts 53°
2026-05-04 13:00 43.50633 7.14704 30530 ft 496 kts 53°
2026-05-04 13:00 43.52643 7.18579 30821 ft 498 kts 53°
2026-05-04 13:00 43.54661 7.22475 31149 ft 500 kts 53°
2026-05-04 13:01 43.56679 7.26374 31578 ft 499 kts 53°
2026-05-04 13:01 43.58697 7.30275 32006 ft 499 kts 53°
2026-05-04 13:01 43.60711 7.34174 32448 ft 499 kts 53°
2026-05-04 13:01 43.62547 7.38227 32885 ft 499 kts 62°
2026-05-04 13:02 43.64029 7.42559 33314 ft 499 kts 65°
2026-05-04 13:02 43.65455 7.46928 33791 ft 499 kts 65°
2026-05-04 13:02 43.66883 7.51295 34224 ft 499 kts 65°
2026-05-04 13:02 43.68310 7.55663 34600 ft 499 kts 65°
2026-05-04 13:03 43.69735 7.60029 34950 ft 498 kts 65°
2026-05-04 13:03 43.71154 7.64382 35390 ft 496 kts 65°
2026-05-04 13:03 43.72564 7.68718 35760 ft 495 kts 65°
2026-05-04 13:03 43.73864 7.73121 36092 ft 495 kts 71°
2026-05-04 13:04 43.74958 7.77632 36409 ft 495 kts 71°
2026-05-04 13:04 43.76050 7.82148 36762 ft 495 kts 71°
2026-05-04 13:04 43.77136 7.86661 37126 ft 494 kts 71°
2026-05-04 13:04 43.78219 7.91166 37466 ft 493 kts 71°
2026-05-04 13:05 43.79300 7.95672 37767 ft 493 kts 71°
2026-05-04 13:05 43.80383 8.00177 38027 ft 494 kts 71°
2026-05-04 13:05 43.81455 8.04638 38119 ft 496 kts 71°
2026-05-04 13:06 43.83635 8.13724 38123 ft 497 kts 71°
2026-05-04 13:06 43.85806 8.22823 38126 ft 498 kts 71°
2026-05-04 13:07 43.87964 8.31937 38124 ft 498 kts 72°
2026-05-04 13:07 43.90116 8.41046 38122 ft 497 kts 71°
2026-05-04 13:08 43.92261 8.50151 38130 ft 497 kts 71°
2026-05-04 13:08 43.94395 8.59258 38134 ft 496 kts 71°
2026-05-04 13:09 43.96516 8.68351 38130 ft 495 kts 71°
2026-05-04 13:09 43.98631 8.77436 38139 ft 494 kts 71°
2026-05-04 13:10 44.00732 8.86505 38136 ft 493 kts 71°
2026-05-04 13:10 44.02820 8.95566 38125 ft 492 kts 71°
2026-05-04 13:11 44.04902 9.04619 38129 ft 492 kts 71°
2026-05-04 13:11 44.06972 9.13671 38142 ft 491 kts 71°
2026-05-04 13:12 44.09024 9.22714 38148 ft 490 kts 72°
2026-05-04 13:12 44.11072 9.31736 38142 ft 489 kts 72°
2026-05-04 13:13 44.13109 9.40755 38133 ft 488 kts 72°
2026-05-04 13:13 44.15134 9.49774 38134 ft 488 kts 71°
2026-05-04 13:14 44.17157 9.58792 38151 ft 488 kts 71°
2026-05-04 13:14 44.19169 9.67817 38144 ft 488 kts 72°
2026-05-04 13:15 44.21175 9.76846 38160 ft 487 kts 72°
2026-05-04 13:15 44.23171 9.85863 38153 ft 486 kts 72°
2026-05-04 13:16 44.25156 9.94865 38155 ft 485 kts 72°
2026-05-04 13:16 44.27128 10.03862 38164 ft 485 kts 72°
2026-05-04 13:17 44.29085 10.12854 38161 ft 484 kts 72°
2026-05-04 13:17 44.31035 10.21842 38174 ft 483 kts 72°
2026-05-04 13:18 44.32986 10.30820 38195 ft 482 kts 72°
2026-05-04 13:18 44.34927 10.39780 38193 ft 482 kts 72°
2026-05-04 13:19 44.36846 10.48739 38189 ft 481 kts 72°
2026-05-04 13:19 44.38751 10.57702 38199 ft 481 kts 72°
2026-05-04 13:20 44.40653 10.66654 38197 ft 480 kts 72°
2026-05-04 13:20 44.42549 10.75597 38190 ft 479 kts 72°
2026-05-04 13:21 44.44442 10.84531 38187 ft 479 kts 72°
2026-05-04 13:21 44.46322 10.93479 38173 ft 479 kts 72°
2026-05-04 13:22 44.48178 11.02367 38173 ft 478 kts 72°
2026-05-04 13:22 44.50036 11.11297 38169 ft 477 kts 73°
2026-05-04 13:23 44.51878 11.20211 38166 ft 476 kts 73°
2026-05-04 13:23 44.53522 11.29187 38095 ft 476 kts 82°
2026-05-04 13:24 44.53819 11.38437 38093 ft 475 kts 89°
2026-05-04 13:24 44.53923 11.47689 38107 ft 474 kts 89°
2026-05-04 13:25 44.54075 11.61554 38122 ft 474 kts 89°
2026-05-04 13:25 44.54150 11.69225 38122 ft 474 kts 89°
2026-05-04 13:26 44.54232 11.78460 38132 ft 474 kts 89°
2026-05-04 13:26 44.54302 11.87689 38114 ft 474 kts 89°
2026-05-04 13:27 44.54365 11.96921 38108 ft 474 kts 89°
2026-05-04 13:27 44.54428 12.06150 38107 ft 474 kts 89°
2026-05-04 13:28 44.54483 12.15384 38121 ft 474 kts 90°
2026-05-04 13:28 44.54526 12.24611 38112 ft 473 kts 90°
2026-05-04 13:29 44.54558 12.33830 38108 ft 473 kts 90°
2026-05-04 13:29 44.54584 12.43040 38103 ft 473 kts 90°
2026-05-04 13:30 44.54609 12.52255 38115 ft 473 kts 90°
2026-05-04 13:30 44.54629 12.61464 38113 ft 472 kts 90°
2026-05-04 13:31 44.54629 12.70658 38103 ft 471 kts 90°
2026-05-04 13:31 44.54629 12.79846 38103 ft 471 kts 90°
2026-05-04 13:32 44.54619 12.88911 38106 ft 471 kts 90°
2026-05-04 13:32 44.54604 12.98086 38108 ft 470 kts 90°
2026-05-04 13:33 44.54585 13.07252 38105 ft 470 kts 90°
2026-05-04 13:33 44.54559 13.16420 38104 ft 470 kts 90°
2026-05-04 13:34 44.54514 13.25591 38109 ft 470 kts 90°
2026-05-04 13:34 44.54464 13.34760 38111 ft 470 kts 90°
2026-05-04 13:35 44.54386 13.48512 38128 ft 470 kts 90°
2026-05-04 13:36 44.54326 13.57674 38118 ft 470 kts 90°
2026-05-04 13:36 44.54257 13.66831 38121 ft 470 kts 90°
2026-05-04 13:37 44.54186 13.75986 38121 ft 469 kts 91°
2026-05-04 13:37 44.54100 13.85069 38141 ft 469 kts 91°
2026-05-04 13:38 44.54009 13.94199 38135 ft 468 kts 91°
2026-05-04 13:38 44.53912 14.03316 38133 ft 467 kts 91°
2026-05-04 13:39 44.53802 14.12416 38133 ft 467 kts 91°
2026-05-04 13:39 44.53684 14.21503 38134 ft 466 kts 91°
2026-05-04 13:40 44.53566 14.30583 38129 ft 466 kts 91°
2026-05-04 13:40 44.53436 14.39660 38127 ft 466 kts 91°
2026-05-04 13:41 44.53297 14.48733 38136 ft 466 kts 91°
2026-05-04 13:41 44.53161 14.57804 38139 ft 465 kts 91°
2026-05-04 13:42 44.52942 14.71403 38142 ft 465 kts 91°
2026-05-04 13:42 44.52779 14.80476 38143 ft 465 kts 91°
2026-05-04 13:43 44.52605 14.89540 38140 ft 465 kts 91°
2026-05-04 13:43 44.52428 14.98599 38138 ft 465 kts 91°
2026-05-04 13:44 44.52252 15.07662 38137 ft 465 kts 91°
2026-05-04 13:44 44.52064 15.16729 38138 ft 465 kts 91°
2026-05-04 13:45 44.51873 15.25788 38132 ft 465 kts 91°
2026-05-04 13:45 44.51671 15.34773 38134 ft 465 kts 91°
2026-05-04 13:46 44.51462 15.43819 38123 ft 464 kts 91°
2026-05-04 13:46 44.51248 15.52863 38118 ft 465 kts 91°
2026-05-04 13:47 44.51030 15.61906 38132 ft 464 kts 91°
2026-05-04 13:47 44.50797 15.70942 38125 ft 464 kts 91°
2026-05-04 13:48 44.50559 15.79972 38120 ft 464 kts 91°
2026-05-04 13:48 44.50310 15.88994 38105 ft 463 kts 91°
2026-05-04 13:49 44.50059 15.98013 38109 ft 463 kts 91°
2026-05-04 13:49 44.49805 16.07031 38108 ft 463 kts 91°
2026-05-04 13:50 44.49536 16.16038 38112 ft 463 kts 91°
2026-05-04 13:50 44.49260 16.25044 38108 ft 463 kts 91°
2026-05-04 13:51 44.48982 16.33980 38102 ft 462 kts 91°
2026-05-04 13:51 44.48692 16.42972 38112 ft 462 kts 91°
2026-05-04 13:52 44.48247 16.56426 38103 ft 460 kts 91°
2026-05-04 13:53 44.47952 16.65375 38094 ft 460 kts 91°
2026-05-04 13:53 44.47648 16.74322 38097 ft 460 kts 91°
2026-05-04 13:54 44.47170 16.87718 38096 ft 458 kts 91°
2026-05-04 13:55 44.46680 17.01060 38085 ft 457 kts 91°
2026-05-04 13:55 44.46179 17.14369 38091 ft 456 kts 91°
2026-05-04 13:56 44.45832 17.23222 38094 ft 455 kts 91°
2026-05-04 13:57 44.45314 17.36462 38098 ft 454 kts 91°
2026-05-04 13:58 44.44584 17.54069 38097 ft 453 kts 91°
2026-05-04 13:58 44.44020 17.67262 38094 ft 453 kts 91°
2026-05-04 13:59 44.43634 17.76052 38093 ft 453 kts 91°
2026-05-04 14:00 44.43051 17.89248 38104 ft 453 kts 91°
2026-05-04 14:00 44.42451 18.02388 38099 ft 453 kts 91°
2026-05-04 14:01 44.42044 18.11190 38098 ft 453 kts 91°
2026-05-04 14:02 44.41425 18.24379 38094 ft 453 kts 92°
2026-05-04 14:02 44.40995 18.33159 38109 ft 452 kts 92°
2026-05-04 14:03 44.40564 18.41934 38104 ft 452 kts 91°
2026-05-04 14:03 44.40119 18.50701 38102 ft 452 kts 92°
2026-05-04 14:04 44.39434 18.63844 38099 ft 452 kts 92°
2026-05-04 14:04 44.38990 18.72605 38099 ft 452 kts 92°
2026-05-04 14:05 44.38306 18.85746 38102 ft 452 kts 92°
2026-05-04 14:06 44.37827 18.94504 38104 ft 452 kts 92°
2026-05-04 14:06 44.37347 19.03257 38124 ft 452 kts 92°
2026-05-04 14:07 44.36851 19.12002 38116 ft 451 kts 92°
2026-05-04 14:07 44.36359 19.20738 38117 ft 451 kts 92°
2026-05-04 14:08 44.35869 19.29468 38107 ft 450 kts 92°
2026-05-04 14:08 44.35364 19.38194 38110 ft 451 kts 92°
2026-05-04 14:09 44.34601 19.51278 38123 ft 450 kts 92°
2026-05-04 14:10 44.33824 19.64335 38119 ft 450 kts 92°
2026-05-04 14:10 44.33295 19.72984 38121 ft 450 kts 92°
2026-05-04 14:11 44.32754 19.81683 38137 ft 450 kts 92°
2026-05-04 14:11 44.32442 19.94710 38125 ft 447 kts 86°
2026-05-04 14:12 44.32504 20.03381 38124 ft 446 kts 86°
2026-05-04 14:13 44.32567 20.16384 38124 ft 446 kts 86°
2026-05-04 14:13 44.32606 20.25049 38126 ft 446 kts 86°
2026-05-04 14:14 44.32639 20.33723 38140 ft 447 kts 86°
2026-05-04 14:14 44.32670 20.46750 38137 ft 447 kts 86°
2026-05-04 14:15 44.32688 20.62649 38142 ft 447 kts 87°
2026-05-04 14:16 44.32689 20.75656 38135 ft 446 kts 87°
2026-05-04 14:17 44.32682 20.88657 38134 ft 446 kts 87°
2026-05-04 14:18 44.32660 21.01657 38147 ft 446 kts 87°
2026-05-04 14:19 44.32599 21.18916 38141 ft 443 kts 88°
2026-05-04 14:19 44.32556 21.27514 38138 ft 442 kts 88°
2026-05-04 14:20 44.32514 21.36097 38135 ft 442 kts 88°
2026-05-04 14:20 44.32465 21.44674 38150 ft 442 kts 88°
2026-05-04 14:21 44.32367 21.57558 38136 ft 442 kts 88°
2026-05-04 14:21 44.32290 21.66147 38131 ft 442 kts 88°
2026-05-04 14:22 44.32213 21.74737 38124 ft 442 kts 88°
2026-05-04 14:22 44.32137 21.83329 38139 ft 442 kts 88°
2026-05-04 14:23 44.32004 21.96205 38121 ft 442 kts 88°
2026-05-04 14:24 44.31905 22.04785 38109 ft 442 kts 88°
2026-05-04 14:24 44.31806 22.13309 38104 ft 442 kts 89°
2026-05-04 14:25 44.31695 22.21891 38111 ft 442 kts 89°
2026-05-04 14:25 44.31521 22.34742 38098 ft 441 kts 89°
2026-05-04 14:26 44.31392 22.43292 38091 ft 440 kts 89°
2026-05-04 14:26 44.31260 22.51836 38084 ft 440 kts 89°
2026-05-04 14:27 44.31499 22.60327 38081 ft 437 kts 82°
2026-05-04 14:27 44.32036 22.68779 38074 ft 437 kts 82°
2026-05-04 14:28 44.32569 22.77234 38073 ft 437 kts 83°
2026-05-04 14:28 44.33092 22.85691 38072 ft 437 kts 83°
2026-05-04 14:29 44.34128 23.02614 38087 ft 437 kts 83°
2026-05-04 14:30 44.34638 23.11080 38077 ft 437 kts 83°
2026-05-04 14:31 44.35379 23.23775 38068 ft 437 kts 83°
2026-05-04 14:31 44.35862 23.32243 37888 ft 437 kts 83°
2026-05-04 14:32 44.36343 23.40703 37284 ft 436 kts 83°
2026-05-04 14:32 44.36586 23.44936 36587 ft 439 kts 84°
2026-05-04 14:32 44.36827 23.49197 35892 ft 441 kts 85°
2026-05-04 14:32 44.37068 23.53479 35164 ft 443 kts 85°
2026-05-04 14:33 44.37307 23.57790 34380 ft 447 kts 85°
2026-05-04 14:33 44.37543 23.62126 33739 ft 446 kts 86°
2026-05-04 14:33 44.37775 23.66428 33224 ft 442 kts 86°
2026-05-04 14:33 44.38008 23.70686 32695 ft 437 kts 86°
2026-05-04 14:34 44.38240 23.74904 32172 ft 433 kts 87°
2026-05-04 14:34 44.38468 23.79091 31639 ft 430 kts 86°
2026-05-04 14:34 44.38690 23.83246 31113 ft 427 kts 87°
2026-05-04 14:34 44.38905 23.87317 30595 ft 424 kts 87°
2026-05-04 14:35 44.39119 23.91413 30059 ft 421 kts 88°
2026-05-04 14:35 44.39330 23.95483 29496 ft 418 kts 87°
2026-05-04 14:35 44.39538 23.99509 28988 ft 413 kts 87°
2026-05-04 14:35 44.39742 24.03490 28484 ft 408 kts 87°
2026-05-04 14:36 44.39942 24.07430 27988 ft 405 kts 86°
2026-05-04 14:36 44.40140 24.11336 27501 ft 401 kts 86°
2026-05-04 14:36 44.40333 24.15215 27027 ft 398 kts 86°
2026-05-04 14:36 44.40523 24.19062 26552 ft 395 kts 86°
2026-05-04 14:37 44.40713 24.22886 26101 ft 393 kts 86°
2026-05-04 14:37 44.40903 24.26686 25667 ft 390 kts 86°
2026-05-04 14:37 44.41090 24.30465 25241 ft 388 kts 85°
2026-05-04 14:37 44.41272 24.34215 24812 ft 385 kts 85°
2026-05-04 14:38 44.41449 24.37936 24389 ft 382 kts 84°
2026-05-04 14:38 44.41625 24.41636 23957 ft 380 kts 84°
2026-05-04 14:38 44.41801 24.45312 23505 ft 378 kts 84°
2026-05-04 14:38 44.41976 24.48965 23030 ft 375 kts 84°
2026-05-04 14:39 44.42145 24.52578 22585 ft 370 kts 84°
2026-05-04 14:39 44.42311 24.56154 22139 ft 366 kts 84°
2026-05-04 14:39 44.42472 24.59696 21677 ft 363 kts 84°
2026-05-04 14:40 44.42790 24.66670 20759 ft 356 kts 84°
2026-05-04 14:40 44.42949 24.70115 20300 ft 354 kts 84°
2026-05-04 14:40 44.43104 24.73537 19842 ft 351 kts 83°
2026-05-04 14:40 44.43254 24.76925 19377 ft 348 kts 83°
2026-05-04 14:41 44.43401 24.80286 18919 ft 344 kts 83°
2026-05-04 14:41 44.43545 24.83613 18467 ft 341 kts 83°
2026-05-04 14:41 44.43831 24.90175 17519 ft 334 kts 83°
2026-05-04 14:42 44.44110 24.96520 16639 ft 325 kts 83°
2026-05-04 14:42 44.44246 24.99656 16206 ft 321 kts 83°
2026-05-04 14:42 44.44381 25.02760 15775 ft 318 kts 83°
2026-05-04 14:43 44.44512 25.05834 15354 ft 315 kts 83°
2026-05-04 14:43 44.44639 25.08890 14922 ft 313 kts 84°
2026-05-04 14:43 44.44764 25.11922 14506 ft 311 kts 84°
2026-05-04 14:43 44.44891 25.14932 14072 ft 310 kts 84°
2026-05-04 14:44 44.44803 25.17950 13600 ft 313 kts 95°
2026-05-04 14:44 44.44205 25.20895 13124 ft 317 kts 108°
2026-05-04 14:44 44.43293 25.23704 12666 ft 316 kts 110°
2026-05-04 14:44 44.42381 25.26494 12209 ft 315 kts 109°
2026-05-04 14:45 44.41471 25.29280 11753 ft 314 kts 109°
2026-05-04 14:45 44.40565 25.32057 11316 ft 314 kts 109°
2026-05-04 14:45 44.39658 25.34833 10870 ft 314 kts 109°
2026-05-04 14:45 44.38755 25.37604 10430 ft 313 kts 109°
2026-05-04 14:46 44.37857 25.40354 10181 ft 306 kts 109°
2026-05-04 14:46 44.36983 25.43014 10056 ft 296 kts 109°
2026-05-04 14:46 44.36131 25.45604 9844 ft 290 kts 109°
2026-05-04 14:46 44.35479 25.48182 9680 ft 275 kts 96°
2026-05-04 14:47 44.35341 25.50768 9255 ft 261 kts 80°
2026-05-04 14:47 44.35686 25.53213 8648 ft 253 kts 66°
2026-05-04 14:47 44.36388 25.55420 8041 ft 250 kts 60°
2026-05-04 14:47 44.37132 25.57614 7405 ft 250 kts 61°
2026-05-04 14:48 44.37856 25.59789 6878 ft 246 kts 61°
2026-05-04 14:48 44.38568 25.61943 6400 ft 241 kts 62°
2026-05-04 14:48 44.39260 25.64045 5938 ft 236 kts 62°
2026-05-04 14:48 44.39942 25.66113 5492 ft 231 kts 62°
2026-05-04 14:49 44.40613 25.68144 5063 ft 231 kts 62°
2026-05-04 14:49 44.41283 25.70169 4618 ft 229 kts 62°
2026-05-04 14:49 44.41961 25.72216 4177 ft 234 kts 63°
2026-05-04 14:49 44.42640 25.74264 4004 ft 226 kts 63°
2026-05-04 14:50 44.43205 25.76219 3964 ft 212 kts 69°
2026-05-04 14:50 44.43628 25.78122 3870 ft 199 kts 70°
2026-05-04 14:50 44.44015 25.79961 3814 ft 195 kts 71°
2026-05-04 14:50 44.44395 25.81776 3820 ft 194 kts 71°
2026-05-04 14:51 44.44774 25.83584 3812 ft 194 kts 71°
2026-05-04 14:51 44.45153 25.85391 3646 ft 193 kts 71°
2026-05-04 14:51 44.45531 25.87196 3422 ft 193 kts 71°
2026-05-04 14:51 44.45902 25.89016 3174 ft 195 kts 72°
2026-05-04 14:52 44.46279 25.90847 2888 ft 195 kts 72°
2026-05-04 14:52 44.46674 25.92663 2677 ft 195 kts 72°
2026-05-04 14:52 44.47048 25.94459 2407 ft 187 kts 72°
2026-05-04 14:52 44.47404 25.96155 2154 ft 173 kts 72°
2026-05-04 14:53 44.47724 25.97704 1907 ft 161 kts 73°
2026-05-04 14:53 44.48026 25.99186 1662 ft 154 kts 73°
2026-05-04 14:53 44.48323 26.00610 1478 ft 150 kts 73°
2026-05-04 14:53 44.48614 26.02001 1316 ft 148 kts 72°
2026-05-04 14:54 44.48901 26.03378 1126 ft 147 kts 72°
2026-05-04 14:54 44.49189 26.04744 914 ft 145 kts 71°
2026-05-04 14:54 44.49466 26.06102 701 ft 144 kts 73°
2026-05-04 14:54 44.49748 26.07435 525 ft 143 kts 73°
2026-05-04 14:55 44.50018 26.08763 331 ft 141 kts 72°
2026-05-04 14:55 44.50266 26.09953 309 ft 99 kts 74°
2026-05-04 14:55 44.50344 26.10408 308 ft 11 kts 133°
2026-05-04 14:55 44.50259 26.10447 309 ft 16 kts 163°
2026-05-04 14:56 44.50164 26.10385 308 ft 18 kts 251°
2026-05-04 14:56 44.50126 26.10202 308 ft 21 kts 253°
2026-05-04 14:56 44.50093 26.10048 308 ft 17 kts 253°
2026-05-04 14:56 44.50058 26.09879 309 ft 20 kts 254°
2026-05-04 14:57 44.50017 26.09681 309 ft 23 kts 254°
2026-05-04 14:57 44.49971 26.09458 308 ft 21 kts 253°
2026-05-04 14:57 44.49930 26.09262 309 ft 20 kts 253°
2026-05-04 14:57 44.49890 26.09067 308 ft 22 kts 253°
2026-05-04 14:58 44.49849 26.08877 310 ft 17 kts 253°
2026-05-04 14:58 44.49814 26.08706 309 ft 18 kts 253°
2026-05-04 14:58 44.49777 26.08530 308 ft 17 kts 253°
2026-05-04 14:58 44.49749 26.08455 308 ft 13 kts 216°
2026-05-04 14:59 44.49679 26.08378 308 ft 10 kts 280°
2026-05-04 14:59 44.49719 26.08355 308 ft 0 kts